This demonstration page uses our WeatherBlox Daily Observations layout. Learn more.

Left ArrowRight Arrow

Hourly Observations for September 30, 2022

Temp ( °F °C ) Dew Point ( °F °C ) Humidity (%) Winds ( mph kmh ) Pressure ( in mb ) Visibility ( mi km ) Precip ( " mm )
12:51 am 00:51 Clear 75 23.9 64 17.8 69 69 ENE 5 7 30.04 1017 10 16 0.00 0.00
1:53 am 01:53 Mostly Cloudy 74 23.3 63 17.2 69 69 SE 7 11 30.02 1017 10 16 0.00 0.00
2:00 am 02:00 Partly Cloudy 74 23.3 63 17.2 69 69 SE 7 11 30.02 1017 10 16 0.00 0.00
2:08 am 02:08 Mostly Cloudy 74 23.3 63 17.2 69 69 SE 8 13 30.01 1016 10 16 0.00 0.00
2:51 am 02:51 Mostly Cloudy 75 23.9 64 17.8 69 69 SE 7 11 30.01 1016 10 16 0.00 0.00
2:57 am 02:57 Cloudy 75 23.9 64 17.8 69 69 SSE 7 11 30.01 1016 10 16 0.00 0.00
3:07 am 03:07 Cloudy 75 23.9 65 18.3 71 71 SSE 5 7 30.01 1016 10 16 0.00 0.00
3:51 am 03:51 Mostly Cloudy 75 23.9 66 18.9 74 74 Calm 30.00 1016 10 16 0.00 0.00
4:02 am 04:02 Partly Cloudy 76 24.4 66 18.9 71 71 SSE 3 6 30.00 1016 10 16 0.00 0.00
4:35 am 04:35 Mostly Cloudy 74 23.3 66 18.9 76 76 Calm 30.00 1016 10 16 0.00 0.00
4:51 am 04:51 Mostly Cloudy 75 23.9 66 18.9 74 74 Calm 30.00 1016 10 16 0.00 0.00
5:51 am 05:51 Mostly Cloudy 75 23.9 66 18.9 74 74 Calm 30.01 1016 10 16 0.00 0.00
6:05 am 06:05 Partly Cloudy 76 24.4 66 18.9 71 71 NE 3 6 30.01 1016 10 16 0.00 0.00
6:51 am 06:51 Sunny 74 23.3 66 18.9 76 76 E 3 6 30.01 1016 10 16 0.00 0.00
7:51 am 07:51 Sunny 80 26.7 67 19.4 64 64 ENE 5 7 30.03 1017 10 16 0.00 0.00
8:51 am 08:51 Sunny 82 27.8 68 20 63 63 NW 7 11 30.04 1017 10 16 0.00 0.00
9:51 am 09:51 Sunny 83 28.3 70 21.1 65 65 NNW 9 15 30.05 1018 10 16 0.00 0.00
10:51 am 10:51 Sunny 84 28.9 70 21.1 63 63 WNW 7 11 30.04 1017 10 16 0.00 0.00
11:24 am 11:24 Mostly Cloudy 83 28.3 69 20.6 63 63 W 7 11 30.03 1017 10 16 0.00 0.00
11:51 am 11:51 Cloudy 83 28.3 68 20 61 61 WNW 6 9 30.02 1017 10 16 0.00 0.00
12:06 pm 12:06 Cloudy 85 29.4 69 20.6 59 59 NW 6 9 30.01 1016 10 16 0.00 0.00
12:33 pm 12:33 Cloudy 84 28.9 69 20.6 61 61 NW 7 11 30.01 1016 10 16 0.00 0.00
12:51 pm 12:51 Cloudy 83 28.3 69 20.6 63 63 WNW 5 7 30.00 1016 10 16 0.00 0.00
1:08 pm 13:08 Partly Cloudy 84 28.9 68 20 59 59 W 7 11 29.99 1016 10 16 0.00 0.00
1:51 pm 13:51 Mostly Cloudy 85 29.4 69 20.6 59 59 W 8 13 29.97 1015 10 16 0.00 0.00
2:16 pm 14:16 Cloudy 83 28.3 69 20.6 63 63 WNW 8 13 29.96 1014 10 16 0.00 0.00
2:51 pm 14:51 Cloudy with Light Rain 81 27.2 70 21.1 69 69 WNW 5 7 29.96 1015 10 16 0.01 0.13
2:59 pm 14:59 Cloudy with Light Rain 82 27.8 70 21.1 67 67 NW 3 6 29.95 1014 10 16 0.01 0.13
3:05 pm 15:05 Cloudy 82 27.8 70 21.1 67 67 VRB 3 6 29.95 1014 10 16 0.01 0.13
3:13 pm 15:13 Cloudy 82 27.8 70 21.1 67 67 VRB 3 6 29.95 1014 10 16 0.01 0.13
3:51 pm 15:51 Cloudy 85 29.4 70 21.1 61 61 WSW 5 7 29.94 1014 10 16 0.01 0.13
4:40 pm 16:40 Mostly Cloudy 84 28.9 69 20.6 61 61 WNW 5 7 29.95 1014 10 16 0.00 0.00
4:51 pm 16:51 Cloudy 83 28.3 70 21.1 65 65 NW 7 11 29.95 1014 10 16 0.00 0.00
5:07 pm 17:07 Mostly Cloudy 84 28.9 70 21.1 63 63 NNW 6 9 29.94 1014 10 16 0.00 0.00
5:51 pm 17:51 Sunny 83 28.3 71 21.7 67 67 NNW 8 13 29.95 1014 10 16 0.00 0.00
6:39 pm 18:39 Mostly Cloudy 82 27.8 70 21.1 67 67 N 6 9 29.96 1014 10 16 0.00 0.00
6:51 pm 18:51 Mostly Cloudy 82 27.8 70 21.1 67 67 N 6 9 29.96 1015 10 16 0.00 0.00
7:02 pm 19:02 Partly Cloudy 82 27.8 70 21.1 67 67 NNE 5 7 29.96 1014 10 16 0.00 0.00
7:51 pm 19:51 Clear 80 26.7 70 21.1 71 71 NNE 3 6 29.98 1015 10 16 0.00 0.00
8:51 pm 20:51 Mostly Clear 78 25.6 68 20 71 71 ENE 3 6 29.99 1016 10 16 0.00 0.00
9:51 pm 21:51 Clear 78 25.6 68 20 71 71 ESE 3 6 30.00 1016 10 16 0.00 0.00
10:51 pm 22:51 Clear 77 25 64 17.8 64 64 ENE 6 9 29.99 1016 10 16 0.00 0.00
11:51 pm 23:51 Clear 76 24.4 63 17.2 64 64 E 3 6 29.98 1015 10 16 0.00 0.00

Powered by AerisWeather